Wind_Speed
16 17 17 17 17 17 17 19 21 23 24 25 25 26 26 27 27 26 27 28 28 28 28 27 27 26 26 25 24 23 22 20 19 18 17 16 15 14 14 13 13 12 12 13
16 17 17 17 18 18 19 20 21 23 23 24 25 25 26 27 27 27 27 29 29 28 27 27 26 25 25 24 23 22 21 20 18 17 17 16 15 13 13 14 13 12 13 13
16 16 18 19 19 19 20 21 22 24 24 25 25 26 26 27 27 28 28 28 27 27 27 27 26 25 25 24 23 22 21 19 18 17 16 15 15 13 13 12 12 12 12 12
18 18 19 20 20 21 22 23 23 24 24 24 24 25 26 27 27 28 28 27 28 28 28 27 27 26 25 24 22 21 20 19 18 16 14 14 14 14 13 13 12 10 11 12
20 20 20 19 20 22 23 24 24 23 23 23 24 24 25 26 27 28 28 28 28 28 28 28 27 25 23 22 21 20 18 17 17 15 15 15 15 14 13 12 11 10 12 12
19 20 20 21 21 22 23 23 23 23 23 23 24 25 26 27 27 28 28 28 28 28 27 26 25 23 22 21 20 18 17 16 15 15 15 15 15 14 13 13 13 13 13 13
19 20 21 22 22 22 23 24 23 23 24 24 25 26 27 27 27 28 28 28 27 26 24 24 22 21 21 20 19 17 16 15 15 16 16 16 15 14 14 14 14 14 13 13
21 21 22 23 23 24 24 24 24 25 25 26 26 27 27 27 27 27 27 27 27 26 24 22 21 20 20 18 17 16 16 16 17 17 17 16 15 15 15 15 15 14 14 14
21 22 23 24 24 25 25 25 25 26 26 26 27 27 26 26 26 26 26 26 26 25 23 21 21 20 18 17 17 17 17 17 17 17 16 15 15 14 15 15 15 15 15 15
22 23 24 24 25 25 25 26 26 27 27 27 27 26 26 26 27 26 26 25 25 23 21 20 19 18 18 18 18 17 17 17 17 16 15 14 14 14 15 15 15 15 14 14
23 24 25 25 26 26 26 26 27 27 27 27 26 26 26 26 26 26 25 24 23 22 20 19 19 19 19 19 18 17 16 16 16 15 15 15 15 15 15 16 15 14 13 12
24 24 25 25 26 26 26 26 27 27 27 27 26 26 25 25 25 25 24 24 22 21 20 19 19 19 19 19 18 17 16 16 15 15 15 15 14 14 14 14 13 12 11 10
25 25 25 26 26 26 26 27 26 26 26 26 26 26 25 25 25 25 25 25 23 21 20 19 19 18 18 18 18 16 17 17 16 16 15 14 14 13 12 11 11 10 10 10
25 25 25 25 25 25 25 25 25 25 26 26 26 26 26 25 25 25 25 24 23 22 21 20 20 19 18 18 17 17 18 17 17 16 15 14 13 12 11 10 10 10 10 10
26 26 25 26 26 26 25 25 25 25 26 26 26 26 26 25 25 24 24 23 22 21 21 20 20 19 19 18 17 17 17 17 16 16 15 14 12 11 10 10 10 10 10 9
26 26 26 27 27 27 27 27 27 27 27 27 27 27 26 25 24 24 24 23 22 21 21 20 20 19 19 18 16 16 17 16 16 15 14 13 12 11 11 11 10 10 10 9
27 27 27 27 27 27 28 28 28 28 27 27 27 27 27 25 25 25 24 23 22 21 20 20 19 19 18 17 17 16 16 15 15 14 13 12 12 12 12 12 11 10 10 9
28 28 28 28 28 29 29 29 29 29 28 28 28 28 27 26 25 24 24 23 22 21 21 20 19 18 17 17 16 15 15 15 14 14 13 13 12 12 12 12 11 11 10 10
28 28 28 29 29 29 30 30 30 29 29 29 29 28 27 26 25 24 24 24 22 21 20 20 19 18 17 16 15 14 14 14 15 14 14 13 12 12 11 11 10 10 10 10
29 30 31 31 31 31 31 31 31 31 30 29 29 29 28 27 26 25 25 24 22 21 20 19 18 18 17 16 15 14 15 15 15 15 14 13 12 11 10 10 10 9 9 8
30 31 31 32 32 32 32 32 32 32 31 31 30 30 28 28 27 26 25 23 22 21 19 18 18 17 17 16 15 15 15 15 15 15 14 12 11 10 10 10 9 9 8 8
31 31 32 33 33 33 33 33 33 33 31 31 30 29 28 27 26 25 24 23 22 21 20 19 18 17 17 17 16 16 15 15 15 15 14 12 11 10 10 10 9 9 9 9
33 34 34 34 35 35 34 34 33 32 31 30 30 28 27 26 25 24 23 23 22 21 21 20 19 19 18 17 17 16 16 16 16 15 14 13 12 11 11 10 10 10 10 10
35 35 35 35 36 35 35 33 32 31 30 29 28 27 26 26 24 24 23 22 22 21 20 19 18 18 17 17 16 16 16 16 15 15 14 13 12 11 11 11 11 11 11 11
37 36 35 35 35 34 33 32 31 30 29 28 26 26 25 24 23 23 22 22 21 20 19 18 17 17 17 17 17 16 16 15 15 14 14 13 12 11 11 11 11 11 11 11
36 36 35 34 34 33 32 31 30 29 28 27 26 25 23 23 23 23 22 21 20 20 19 18 17 16 17 17 17 17 16 15 15 14 14 12 12 11 11 11 11 11 12 12
35 34 34 33 33 32 31 30 29 27 26 25 24 23 23 22 23 22 21 21 20 19 19 19 18 17 17 17 17 16 15 15 15 15 14 13 11 10 9 9 10 10 10 11
Wind_Direction
294 295 297 299 297 298 300 300 302 306 309 312 312 312 312 314 315 316 317 318 320 320 321 322 322 324 324 323 322 321 320 318 316 316 316 315 311 307 302 297 294 291 287 284
293 294 298 298 300 302 303 303 305 307 310 313 314 314 315 316 317 318 319 319 320 320 320 321 321 323 323 323 323 322 321 318 316 316 316 316 314 308 305 300 296 293 292 290
295 296 300 300 303 303 303 306 309 310 312 314 316 316 315 316 317 318 319 319 320 321 320 320 320 322 323 324 324 323 322 319 319 318 317 317 316 315 308 303 301 300 295 292
295 298 301 305 305 306 306 307 309 311 314 316 317 317 317 317 318 320 320 320 320 320 319 319 320 321 321 322 321 321 322 322 321 321 321 320 318 313 309 310 308 304 302 299
296 299 304 307 309 309 309 309 309 311 313 314 316 315 316 317 318 319 321 321 322 321 320 319 318 319 319 319 318 318 319 320 319 318 316 317 317 313 309 308 309 309 308 303
298 301 305 308 309 309 308 309 310 311 312 313 315 314 315 316 316 317 319 319 321 321 320 319 318 318 318 321 320 319 319 320 318 319 318 317 316 313 309 308 311 315 313 308
300 302 304 308 309 310 309 310 310 311 311 312 313 315 316 317 318 319 318 318 319 319 320 320 318 319 321 322 321 319 318 318 317 317 319 320 319 315 311 308 310 313 314 310
300 302 304 308 310 311 310 308 309 311 312 312 313 314 315 317 318 318 317 316 316 314 315 317 316 316 318 319 320 319 318 318 317 317 317 318 317 315 313 311 311 312 311 309
300 301 302 305 309 310 310 309 308 310 310 311 311 312 313 315 317 318 317 317 317 316 315 317 318 317 316 316 316 314 314 317 317 317 318 318 316 314 311 310 310 310 308 307
297 299 300 303 306 308 308 308 308 308 309 310 310 311 312 313 314 316 317 316 317 316 314 317 318 317 315 313 313 314 315 316 318 320 319 318 315 312 310 309 308 308 308 309
292 295 298 301 303 305 305 306 306 308 310 311 312 313 313 314 314 316 316 316 316 314 312 312 313 314 315 314 313 315 316 317 317 317 317 316 313 310 309 309 310 310 309 309
290 293 295 297 300 301 302 302 303 305 307 309 311 312 313 314 316 317 317 315 313 312 309 308 310 313 316 316 314 314 315 315 315 316 315 314 312 310 310 311 311 313 311 310
288 291 293 296 298 298 299 301 303 305 307 308 310 310 311 312 314 315 316 315 312 310 310 310 310 311 315 315 313 312 311 312 312 312 311 310 311 313 312 311 311 312 312 310
285 289 292 295 297 298 299 301 303 304 305 307 309 309 310 310 311 313 314 313 310 308 308 309 308 309 311 311 310 310 311 311 310 310 309 309 309 311 312 311 312 310 308 307
283 286 289 292 295 296 297 299 301 302 303 307 308 308 309 309 310 311 312 312 309 305 305 305 306 307 306 305 305 307 309 310 309 308 308 305 303 303 305 306 309 308 304 305
281 283 286 288 291 293 294 296 299 300 302 305 306 307 308 307 307 308 310 311 309 307 305 305 305 306 305 303 302 305 308 311 311 310 308 305 300 299 301 302 303 305 304 303
279 281 283 286 289 291 293 295 297 299 300 300 303 305 306 305 305 306 308 310 310 306 305 306 306 306 307 306 306 307 309 311 313 313 310 306 304 302 300 300 300 299 299 303
279 280 282 284 287 289 291 293 295 296 297 297 300 302 302 301 301 302 305 307 307 304 302 303 304 306 308 308 308 307 307 309 311 311 309 305 302 301 303 301 300 297 294 296
278 280 282 283 285 288 290 291 292 294 295 295 297 299 299 298 297 297 301 303 304 303 301 299 301 303 305 306 305 307 308 308 307 307 306 302 299 299 302 304 299 292 291 296
277 278 280 283 284 286 288 289 289 290 291 292 293 294 294 295 294 294 297 298 298 299 298 295 297 300 301 302 303 304 307 308 308 306 305 301 296 294 296 300 299 295 294 299
276 276 279 282 282 284 286 287 288 288 289 290 290 290 290 291 291 292 293 293 294 295 294 292 293 294 294 297 299 302 306 307 308 306 301 298 296 292 292 296 295 293 294 299
275 275 278 280 281 283 285 286 287 287 287 288 289 288 288 289 290 290 290 290 290 289 290 289 288 288 290 293 295 298 302 303 305 306 302 296 292 288 287 290 291 293 296 297
275 276 277 279 281 284 286 287 287 286 287 287 288 287 286 286 288 288 287 286 287 287 287 288 287 286 287 290 291 292 295 298 299 300 299 294 286 282 283 284 287 288 291 298
275 276 277 279 281 283 284 285 285 285 286 287 286 285 284 285 285 285 282 283 285 286 286 286 285 283 285 287 289 290 293 295 295 294 292 291 286 282 280 281 284 283 285 291
273 275 277 278 279 280 280 281 282 283 284 286 285 284 283 283 282 281 281 279 279 281 281 282 283 284 284 285 287 289 290 291 291 290 287 287 288 285 280 279 281 282 283 287
272 275 276 276 277 278 278 279 280 280 281 282 284 283 281 280 279 278 279 277 274 274 275 277 280 284 285 284 285 286 288 288 288 287 285 283 285 285 282 278 278 280 282 282
272 273 275 275 275 276 276 276 277 277 277 278 279 280 279 277 277 277 276 276 273 271 272 273 276 281 281 281 282 282 282 283 283 282 279 278 279 279 279 279 280 282 283 284
Height
5844 5842 5840 5838 5837 5835 5833 5830 5827 5824 5820 5817 5813 5809 5805 5801 5797 5792 5788 5783 5777 5772 5767 5762 5757 5752 5747 5742 5737 5733 5729 5725 5722 5719 5716 5713 5711 5709 5707 5706 5705 5704 5703 5703
5840 5838 5836 5835 5833 5830 5828 5825 5822 5819 5816 5812 5807 5803 5799 5795 5791 5787 5782 5777 5772 5767 5762 5757 5752 5748 5743 5738 5733 5729 5725 5721 5718 5715 5712 5710 5707 5705 5704 5702 5701 5700 5699 5698
5837 5834 5832 5830 5828 5826 5823 5820 5817 5813 5811 5806 5802 5798 5794 5790 5785 5781 5776 5772 5766 5761 5757 5752 5748 5743 5738 5733 5729 5724 5721 5717 5714 5711 5708 5706 5704 5702 5700 5698 5697 5696 5694 5693
5832 5831 5828 5828 5823 5820 5817 5814 5811 5808 5804 5801 5797 5793 5789 5784 5780 5776 5771 5766 5761 5757 5752 5747 5743 5738 5733 5729 5725 5721 5717 5714 5710 5708 5705 5703 5701 5699 5697 5695 5694 5692 5691 5689
5827 5825 5823 5821 5818 5815 5811 5808 5805 5802 5800 5796 5793 5789 5785 5780 5776 5771 5766 5761 5756 5751 5746 5742 5737 5733 5729 5725 5721 5718 5714 5711 5708 5705 5703 5700 5698 5696 5694 5692 5691 5689 5688 5686
5822 5820 5818 5817 5814 5810 5807 5803 5800 5797 5794 5791 5787 5784 5781 5775 5771 5766 5761 5756 5751 5746 5741 5737 5733 5729 5725 5721 5718 5714 5711 5708 5706 5703 5700 5698 5695 5693 5691 5689 5688 5686 5684 5683
5817 5815 5812 5810 5807 5805 5802 5799 5795 5792 5788 5785 5782 5779 5774 5769 5765 5761 5756 5751 5746 5742 5737 5732 5728 5724 5721 5718 5715 5712 5709 5706 5703 5700 5697 5694 5692 5690 5688 5686 5685 5683 5681 5679
5812 5809 5809 5804 5801 5799 5796 5792 5789 5785 5782 5780 5776 5773 5768 5764 5760 5755 5751 5746 5741 5737 5733 5729 5725 5721 5718 5715 5712 5709 5706 5703 5700 5697 5694 5691 5688 5686 5684 5683 5681 5679 5677 5675
5807 5806 5802 5798 5796 5793 5790 5786 5783 5780 5777 5774 5770 5767 5763 5759 5755 5750 5745 5741 5736 5732 5728 5725 5721 5717 5714 5711 5708 5705 5702 5699 5696 5692 5689 5687 5685 5683 5681 5679 5677 5675 5673 5671
5800 5797 5795 5792 5790 5787 5784 5781 5777 5774 5771 5767 5764 5760 5757 5753 5749 5744 5740 5736 5732 5728 5724 5721 5717 5714 5711 5708 5705 5702 5699 5695 5692 5689 5686 5684 5682 5680 5678 5675 5673 5671 5668 5666
5794 5792 5789 5787 5784 5781 5778 5775 5771 5768 5765 5761 5758 5754 5751 5747 5743 5739 5735 5731 5727 5723 5720 5717 5714 5710 5707 5704 5701 5698 5695 5692 5689 5686 5683 5680 5678 5676 5673 5671 5669 5666 5664 5662
5788 5786 5784 5781 5778 5775 5772 5768 5765 5762 5759 5756 5753 5749 5745 5741 5738 5734 5730 5726 5722 5719 5715 5713 5709 5706 5703 5699 5696 5694 5691 5688 5685 5682 5680 5677 5674 5672 5669 5667 5664 5662 5660 5659
5781 5778 5776 5774 5771 5768 5765 5762 5759 5756 5753 5750 5746 5743 5740 5736 5733 5729 5725 5721 5717 5714 5710 5708 5705 5702 5699 5695 5693 5690 5687 5685 5682 5679 5676 5673 5671 5668 5666 5664 5661 5659 5657 5656
5773 5771 5769 5766 5764 5761 5758 5756 5753 5750 5746 5743 5740 5737 5734 5730 5727 5723 5719 5715 5712 5708 5705 5703 5700 5697 5694 5691 5688 5686 5683 5680 5677 5675 5672 5669 5666 5664 5662 5660 5659 5656 5655 5653
5765 5763 5761 5759 5756 5754 5751 5749 5746 5743 5740 5737 5734 5731 5727 5724 5721 5717 5714 5710 5707 5704 5700 5698 5695 5692 5690 5687 5684 5681 5679 5676 5673 5670 5668 5665 5663 5661 5659 5657 5656 5654 5652 5650
5756 5754 5753 5751 5749 5746 5744 5742 5739 5737 5734 5731 5727 5724 5721 5718 5714 5711 5708 5705 5702 5698 5695 5693 5690 5687 5685 5682 5679 5677 5674 5672 5669 5667 5664 5662 5659 5658 5656 5654 5652 5651 5649 5648
5747 5746 5744 5743 5741 5739 5736 5734 5731 5729 5726 5723 5720 5717 5714 5711 5708 5705 5702 5699 5696 5693 5690 5687 5685 5682 5680 5677 5675 5672 5670 5668 5665 5663 5660 5658 5656 5654 5652 5651 5649 5647 5646 5645
5738 5736 5735 5734 5732 5730 5728 5726 5723 5721 5718 5715 5712 5710 5707 5704 5701 5698 5696 5693 5690 5687 5685 5682 5680 5677 5675 5673 5670 5668 5666 5664 5661 5659 5657 5655 5652 5650 5649 5647 5645 5644 5643 5642
5728 5727 5726 5724 5722 5721 5719 5716 5714 5712 5709 5707 5704 5702 5699 5696 5694 5692 5689 5687 5684 5682 5679 5677 5675 5672 5670 5668 5666 5664 5662 5660 5658 5655 5653 5651 5649 5647 5645 5644 5642 5641 5640 5638
5719 5717 5716 5714 5713 5711 5709 5707 5705 5703 5700 5698 5695 5693 5690 5688 5686 5684 5682 5680 5677 5675 5673 5671 5669 5667 5665 5663 5661 5660 5657 5655 5653 5651 5649 5647 5645 5643 5642 5641 5639 5638 5637 5636
5708 5707 5706 5704 5703 5701 5699 5697 5695 5693 5691 5688 5686 5684 5681 5679 5677 5675 5674 5672 5670 5668 5667 5665 5663 5662 5660 5658 5657 5655 5653 5651 5649 5647 5645 5643 5641 5640 5639 5638 5636 5635 5634 5633
5698 5697 5695 5694 5692 5691 5689 5687 5685 5683 5680 5678 5676 5674 5672 5670 5669 5667 5665 5664 5663 5661 5660 5658 5657 5656 5654 5653 5651 5650 5648 5646 5644 5642 5640 5639 5638 5636 5636 5634 5633 5632 5631 5631
5687 5686 5684 5683 5681 5680 5678 5676 5674 5672 5670 5668 5666 5664 5663 5661 5660 5659 5658 5657 5655 5654 5653 5652 5651 5650 5649 5647 5646 5645 5643 5642 5640 5638 5636 5635 5634 5633 5632 5631 5630 5629 5628 5628
5675 5674 5673 5671 5670 5668 5667 5665 5664 5662 5660 5658 5656 5655 5654 5653 5652 5651 5650 5649 5648 5647 5646 5645 5644 5643 5642 5641 5640 5639 5638 5636 5635 5634 5632 5631 5630 5629 5628 5627 5626 5626 5625 5624
5662 5662 5661 5660 5659 5657 5656 5655 5653 5652 5650 5649 5647 5646 5645 5644 5644 5643 5642 5641 5640 5640 5639 5639 5638 5637 5636 5635 5635 5634 5632 5631 5630 5629 5628 5627 5626 5625 5624 5623 5622 5622 5621 5620
5651 5650 5649 5648 5647 5646 5645 5644 5643 5642 5641 5639 5638 5637 5636 5636 5636 5635 5634 5634 5633 5633 5633 5632 5632 5631 5630 5629 5629 5628 5627 5626 5625 5624 5623 5622 5622 5621 5620 5619 5618 5618 5617 5616
5639 5638 5637 5637 5636 5635 5634 5633 5633 5632 5631 5630 5630 5629 5628 5628 5627 5627 5627 5626 5626 5626 5625 5625 5625 5625 5624 5624 5623 5623 5622 5621 5620 5619 5619 5618 5617 5616 5616 5615 5614 5614 5613 5612